Change the Weather History Date:

Tuesday, March 26, 2013

  Actual Average Record
Temperature  
Mean Temperature 43 °F 44 °F  
Max Temperature 51 °F 54 °F 79 °F (1921)
Min Temperature 35 °F 34 °F 18 °F (1866)
Degree Days  
Heating Degree Days 22 21  
Month to date heating degree days 682 613  
Since 1 July heating degree days 4283 4427  
Cooling Degree Days 0 0  
Month to date cooling degree days 0 0  
Year to date cooling degree days 0 0  
Moisture  
Dew Point 30 °F    
Average Humidity 64    
Maximum Humidity 92    
Minimum Humidity 35    
Precipitation  
Precipitation T in 0.13 in 1.52 in (1978)
Month to date precipitation 2.37 3.28  
Year to date precipitation 6.99 8.75  
Sea Level Pressure  
Sea Level Pressure 29.75 in    
Wind  
Wind Speed 7 mph (NW)    
Max Wind Speed 18 mph    
Max Gust Speed 24 mph    
Visibility 10 miles    
Events      
T = Trace of Precipitation, MM = Missing Value Source: NWS Daily Summary

Daily Weather History Graph

Daily Weather History Graph

Search for Another Location

Airport or City:

Trip Planner

Search our weather history database for the weather conditions in past years. The results will help you decide how hot, cold, wet, or windy it might be!

Date:

Astronomy

Mar. 26, 2013 Rise Set
Actual Time 6:52 AM EDT 7:17 PM EDT
Civil Twilight 6:25 AM EDT 7:45 PM EDT
Nautical Twilight 5:53 AM EDT 8:17 PM EDT
Astronomical Twilight 5:20 AM EDT 8:50 PM EDT
Moon 6:51 PM EDT (3/26) 6:07 AM EDT (3/26)
Length of Visible Light 13h 19m
Length of Day
12h 25m
Waxing Gibbous, 99% of the Moon is Illuminated
Mar 26
Waxing Gibbous
Mar 27
Full
Apr 3
Last Quarter
Apr 10
New
Apr 18
First Quarter

Hourly Weather History & Observations

Time (EDT) Temp. Windchill Dew Point Humidity Pressure Visibility Wind Dir Wind Speed Gust Speed Precip Events Conditions
12:53 AM 36.0 °F 30.3 °F 33.1 °F 89% 29.62 in 10.0 mi NNW 6.9 mph - N/A   Overcast
1:53 AM 36.0 °F 33.3 °F 33.1 °F 89% 29.64 in 10.0 mi North 3.5 mph - N/A   Overcast
2:53 AM 35.1 °F 29.3 °F 33.1 °F 92% 29.64 in 10.0 mi NW 6.9 mph - 0.00 in   Overcast
3:53 AM 35.1 °F 28.6 °F 33.1 °F 92% 29.66 in 10.0 mi NW 8.1 mph - N/A   Overcast
4:53 AM 35.1 °F 29.3 °F 33.1 °F 92% 29.67 in 10.0 mi NW 6.9 mph - N/A   Overcast
5:53 AM 35.1 °F 29.3 °F 32.0 °F 89% 29.68 in 10.0 mi NW 6.9 mph - N/A   Overcast
6:53 AM 35.1 °F 30.1 °F 32.0 °F 89% 29.70 in 10.0 mi NNW 5.8 mph - N/A   Overcast
7:53 AM 36.0 °F 31.1 °F 30.9 °F 82% 29.73 in 10.0 mi NNW 5.8 mph - N/A   Overcast
8:53 AM 37.9 °F 31.5 °F 32.0 °F 79% 29.74 in 10.0 mi NW 9.2 mph - N/A   Overcast
9:53 AM 39.9 °F 33.9 °F 32.0 °F 73% 29.76 in 10.0 mi NW 9.2 mph - N/A   Overcast
10:53 AM 43.0 °F 38.8 °F 32.0 °F 65% 29.76 in 10.0 mi NNW 6.9 mph - N/A   Overcast
11:53 AM 46.0 °F 41.0 °F 30.9 °F 56% 29.75 in 10.0 mi NW 10.4 mph - N/A   Partly Cloudy
12:53 PM 46.9 °F - 30.0 °F 52% 29.75 in 10.0 mi NW 8.1 mph - N/A   Mostly Cloudy
1:53 PM 48.0 °F - 27.0 °F 44% 29.75 in 10.0 mi NNW 9.2 mph - N/A   Overcast
2:53 PM 48.9 °F - 25.0 °F 39% 29.75 in 10.0 mi NW 10.4 mph - 0.00 in   Overcast
3:53 PM 50.0 °F - 24.1 °F 36% 29.75 in 10.0 mi NNW 6.9 mph - N/A   Overcast
4:53 PM 51.1 °F - 24.1 °F 35% 29.75 in 10.0 mi NW 9.2 mph - N/A   Overcast
5:53 PM 48.0 °F - 27.0 °F 44% 29.77 in 10.0 mi NW 10.4 mph 18.4 mph N/A   Mostly Cloudy
6:53 PM 48.0 °F - 27.0 °F 44% 29.79 in 10.0 mi NW 4.6 mph - N/A   Overcast
7:53 PM 46.9 °F - 27.0 °F 46% 29.82 in 10.0 mi North 4.6 mph - N/A   Overcast
8:53 PM 46.0 °F 42.5 °F 27.0 °F 47% 29.84 in 10.0 mi NNW 6.9 mph - N/A   Overcast
9:53 PM 44.1 °F 39.5 °F 28.0 °F 53% 29.86 in 10.0 mi NNW 8.1 mph - N/A   Overcast
10:53 PM 42.1 °F 37.7 °F 28.9 °F 60% 29.88 in 10.0 mi NW 6.9 mph - N/A   Partly Cloudy
11:53 PM 39.9 °F 35.1 °F 30.0 °F 68% 29.88 in 10.0 mi NW 6.9 mph - N/A   Clear